Flag for Germany Weather past 2 weeks in Hückelhoven, North Rhine-Westphalia, Germany

Now
46 °F

Broken clouds.


Feels Like: 43 °F
Forecast: 36 / 48 °F
Wind: 7 mph from West

Location: Geilenkirchen Airport

Current Time: Mar 5, 2015 at 1:22:42 PM

Latest Report: Mar 5, 2015 at 12:50 PM


Visibility: N/A

Pressure: 30.66 "Hg

Humidity: 62%

Dew point: 34 °F

Location of HückelhovenLocation

Historic Weather in Hückelhoven — Graph

°F

Hückelhoven temperature yesterday

Maximum temperature yesterday: 45 °F (at 12:50 PM)
Minimum temperature yesterday: 36 °F (at 5:50 AM)
Average temperature yesterday: 40 °F

Past Weeks' High & Low Weather Summary

 TemperatureHumidityPressure
High50 °F (Feb 26, 12:50 PM)100% (Feb 18, 11:50 AM)30.74 "Hg (Feb 18, 11:50 AM)
Low28 °F (Feb 18, 11:50 PM)46% (Mar 2, 1:50 PM)29.39 "Hg (Feb 23, 4:50 AM)
Average41 °F81%29.99 "Hg
* Reported Feb 18 11:50 AM — Mar 5 11:50 AM, Hückelhoven, Weather by CustomWeather, © 2015

Note: Actual official high and low records may vary slightly from our data, if they occured in-between our weather recording intervals... More about our weather records

Advertising

Hückelhoven weather history for previous 24 hours

 ConditionsComfort  
Time TempWeatherWind HumidityBarometerVisibility
11:50 AM
Thu, Mar 5
45 °FBroken clouds.7 mph76%30.69 "HgN/A
10:50 AM43 °FPartly sunny.6 mph81%30.69 "HgN/A
9:50 AM41 °FScattered clouds.7 mph93%30.69 "Hg6 mi
8:50 AM37 °FFog.7 mph100%30.66 "Hg4 mi
7:50 AM36 °FFog.7 mph100%30.66 "Hg2 mi
6:50 AM36 °FFog.6 mph100%30.63 "Hg3 mi
5:50 AM36 °FPassing clouds.6 mph100%30.63 "HgN/A
4:50 AM36 °FPassing clouds.7 mph93%30.60 "HgN/A
3:50 AM37 °FPassing clouds.7 mph93%30.60 "HgN/A
2:50 AM37 °FPassing clouds.7 mph93%30.60 "HgN/A
1:50 AM39 °FPassing clouds.10 mph87%30.57 "HgN/A
12:50 AM39 °FPassing clouds.10 mph87%30.54 "HgN/A
11:50 PM
Wed, Mar 4
39 °FPassing clouds.12 mph87%30.54 "HgN/A
10:50 PM39 °FPartly cloudy.13 mph87%30.51 "HgN/A
9:50 PM39 °FPartly cloudy.14 mph87%30.48 "HgN/A
8:50 PM41 °FPartly cloudy.13 mph81%30.45 "HgN/A
7:50 PM41 °FPassing clouds.14 mph76%30.42 "HgN/A
6:50 PM43 °FPartly cloudy.16 mph71%30.39 "HgN/A
5:50 PM43 °FBroken clouds.16 mph71%30.36 "HgN/A
4:50 PM43 °FScattered clouds.16 mph76%30.33 "HgN/A
3:50 PM45 °FSprinkles. Broken clouds.21 mph66%30.30 "HgN/A
2:50 PM43 °FScattered showers. Broken clouds.9 mph81%30.30 "HgN/A
1:50 PM45 °FScattered clouds.16 mph66%30.30 "HgN/A
Weather by CustomWeather, © 2015

See weather overviewHow to use our weather pages